Location: Bassingbourn
(52.0667°N, 0.0500°W)
Time: 23:36:05
(UTC+00:00)

Daily predictions for brighter satellites

Satellite Brightness Start Highest point End
(mag) Time Altitude Azimuth Time Altitude Azimuth Time Altitude Azimuth
ARIANE 6 FM1 Upper Stage 4.2 21:08:01 10° WNW 21:11:34 28° SW 21:15:09 10° S
Cosmos 1328 Rocket 3.6 21:09:09 10° S 21:13:32 87° E 21:17:59 10° NNE
USA 59 Rocket 2.2 21:12:29 10° NNW 21:14:14 14° NNE 21:16:09 10° NE
Cosmos 2297 Rocket 2.3 21:09:25 10° SSW 21:15:06 89° NW 21:20:49 10° NNE
Cosmos 614 Rocket 4.0 21:10:01 10° SSW 21:15:10 72° ESE 21:20:18 10° NNE
Ariane Rocket 3.1 21:10:49 10° SSE 21:15:54 78° ENE 21:21:01 10° NNW
Cosmos 1470 Rocket 3.6 21:14:56 10° N 21:19:17 88° E 21:23:38 10° S
GP-B 4.3 21:16:12 10° NNE 21:20:00 28° E 21:23:47 10° SE
SPOT 3 Rocket 3.6 21:15:30 10° SSE 21:20:38 90° WSW 21:25:51 10° NNW
Cosmos 1758 3.2 21:18:14 10° NNW 21:22:00 81° W 21:25:43 10° S
Cosmos 2084 Rocket 3.4 21:20:48 10° NW 21:24:59 78° SW 21:29:06 10° SE
ATLAS CENTAUR R/B 1.8 21:23:43 10° NW 21:27:25 46° SW 21:31:00 10° SSE
Helios 1A 3.9 21:25:32 10° N 21:29:22 47° WNW 21:33:09 10° SW
Meteor 1-13 Rocket 4.4 21:23:55 10° S 21:29:49 71° E 21:35:40 10° NNE
Cosmos 1933 Rocket 3.8 21:26:01 10° N 21:30:24 58° ENE 21:34:40 10° SSE
Cosmos 2173 Rocket 4.1 21:24:16 10° NNW 21:30:30 82° W 21:36:37 10° S
Cosmos 1992 Rocket 4.1 21:27:47 10° NNW 21:33:00 78° WSW 21:38:10 10° SSE
SL-16 R/B 2.3 21:30:26 10° NNW 21:36:08 86° ENE 21:41:38 11° SSE
PSLV R/B 3.5 21:33:19 10° S 21:36:36 69° WSW 21:39:54 10° NNW
Cosmos 2344 4.2 21:32:05 10° NW 21:39:41 64° NE 21:49:37 10° ESE
Terra 3.5 21:35:41 10° SSW 21:39:46 29° W 21:43:54 10° NNW
Cosmos 1515 Rocket 3.6 21:35:55 10° S 21:40:21 74° E 21:44:47 10° NNE
Cosmos 1727 Rocket 4.3 21:34:16 10° SSW 21:40:23 68° WNW 21:46:35 10° N
Meteor 1-23 Rocket 4.4 21:36:15 10° S 21:41:40 56° E 21:47:10 10° NNE
Cosmos 2227 Rocket 2.2 21:38:01 10° SSW 21:43:39 76° ESE 21:49:19 10° NNE
Cosmos 2233 Rocket 4.3 21:37:23 10° N 21:43:40 61° ENE 21:49:37 11° SSE
COSMOS 2455 3.8 21:38:54 10° NW 21:44:26 39° WSW 21:49:56 10° S
Cosmos 1869 Rocket 3.9 21:40:21 10° N 21:44:42 54° ENE 21:48:34 12° SSE
RESURS DK-1 2.5 21:40:51 10° SSW 21:44:44 50° ESE 21:48:38 10° NE
Cosmos 2100 Rocket 4.4 21:40:07 10° NNW 21:46:13 63° W 21:52:16 10° S
Cosmos 2263 Rocket 2.6 21:42:56 10° S 21:48:19 46° ESE 21:53:44 10° NE
Iridium 51 4.0 21:46:07 10° N 21:49:51 78° E 21:53:07 12° S
Okean O Rocket 4.1 21:48:43 10° SW 21:51:13 15° W 21:53:43 10° NW
Cosmos 1725 Rocket 4.1 21:49:16 10° NNW 21:55:36 83° W 22:01:54 10° S
Cosmos 1943 3.8 21:52:01 10° NNW 21:57:38 53° NE 22:03:04 11° SE
Cosmos 1437 Rocket 2.5 21:56:02 10° SSW 21:59:34 85° WNW 22:03:11 10° NNE
Cosmos 921 Rocket 3.9 21:58:27 10° SW 22:02:37 52° WNW 22:06:54 10° NNE
SeaSat 1 4.4 22:00:34 10° E 22:04:21 23° NE 22:08:08 10° NNW
Cosmos 1763 Rocket 4.4 22:02:49 10° NNW 22:07:43 41° NE 22:12:23 11° SE
Geosat 4.0 22:03:26 10° NE 22:08:25 61° ESE 22:13:22 10° SSW
Cosmos 2219 3.4 22:03:32 10° S 22:09:08 57° ESE 22:14:46 10° NE
COBE Rocket 4.0 22:05:23 10° NNE 22:10:28 70° E 22:15:12 11° S
MetOp-A 4.4 22:10:28 13° SE 22:14:23 45° ENE 22:18:40 10° N
USA 290 2.5 22:14:12 16° S 22:16:27 45° ESE 22:19:33 10° NE
Meteor 2-16 Rocket 4.5 22:12:54 12° S 22:18:34 68° E 22:24:38 10° NNE
Cosmos 2082 4.0 22:13:07 10° S 22:18:37 52° ESE 22:24:10 10° NE
USA 305 2.1 22:15:10 10° WSW 22:18:56 71° SSE 22:21:59 10° ENE
Cosmos 2123 Rocket 4.3 22:13:06 10° SSW 22:19:21 68° WNW 22:25:36 10° N
SL-8 R/B 4.3 22:15:11 10° W 22:19:34 37° SSW 22:22:53 16° SE
Cosmos 2292 Rocket 3.7 22:18:13 19° SE 22:19:39 29° E 22:22:14 10° NNE
Okean 1-7 4.5 22:19:41 14° SE 22:22:04 22° E 22:25:16 10° NE
ARIANE 5 R/B 3.1 22:20:49 15° SE 22:24:15 51° ENE 22:28:36 10° N
Cosmos 2237 Rocket 4.4 22:21:11 10° WNW 22:24:28 16° W 22:27:47 10° SW
SL-4 R/B 3.0 22:21:35 10° SSW 22:24:56 24° SE 22:28:12 10° E
Cosmos 1953 2.4 22:24:13 10° NNW 22:27:56 63° W 22:30:44 17° S
Cosmos 1140 Rocket 3.6 22:26:49 13° S 22:31:17 58° ESE 22:36:19 10° NNE
Cosmos 2061 Rocket 4.2 22:27:55 10° NNW 22:34:10 68° W 22:39:36 14° S
Spot 4 4.4 22:30:33 15° SE 22:34:17 49° ENE 22:38:58 10° N
NOSS 3-1 (C) 4.0 22:28:26 10° NW 22:35:19 89° NE 22:43:29 12° SE
Lacrosse 4 Rocket 3.5 22:33:54 10° WNW 22:36:40 17° WSW 22:39:27 10° SSW
Cosmos 1703 3.4 22:34:57 21° SSE 22:36:56 46° E 22:40:18 10° NNE
Cosmos 1892 2.7 22:43:00 24° SSE 22:44:18 39° E 22:47:09 10° NNE
Cosmos 1023 Rocket 4.4 22:40:15 12° SSW 22:45:03 78° ESE 22:50:09 10° NNE
CZ-4C R/B 2.7 22:47:23 10° NNE 22:50:40 84° ESE 22:52:42 21° SSW
DNEPR-1 R/B 4.1 22:45:57 10° SW 22:51:46 84° NW 22:56:34 10° NE
USA 307 4.5 22:54:11 14° ESE 22:54:11 14° ESE 22:55:45 10° E
Cosmos 407 Rocket 3.7 22:50:55 18° S 22:54:29 51° ESE 22:59:26 10° NNE
GP-B 4.3 22:53:07 10° NNW 22:57:09 37° W 23:01:10 10° SW
Cosmos 2228 Rocket 3.2 22:54:32 20° S 22:57:30 65° E 23:01:54 10° NNE
Cosmos 1844 Rocket 3.5 22:54:47 19° SSE 22:58:11 36° ESE 23:03:18 10° NE
IRIDIUM 104 4.4 22:55:45 17° S 22:59:54 79° W 23:05:09 10° N
Cosmos 2251 Rocket 4.2 22:59:04 20° SSE 23:02:21 41° ESE 23:07:22 10° NE
Cosmos 1844 4.5 22:59:50 19° SSE 23:03:00 34° ESE 23:07:58 10° NE
USA 59 Rocket 0.5 23:00:39 10° NW 23:03:53 47° NE 23:08:01 10° ESE
Landsat 5 3.6 23:03:10 10° NNE 23:07:25 60° ESE 23:09:56 23° S
GRACE-FO 1 4.4 23:05:54 25° S 23:07:49 86° W 23:11:19 10° N
Cosmos 1707 Rocket 3.5 23:05:01 20° S 23:07:57 90° ESE 23:12:17 10° N
GRACE-FO 2 4.4 23:06:18 25° S 23:08:13 85° W 23:11:43 10° N
ATLAS 3B R/B 4.1 23:02:03 10° NW 23:09:38 46° NNE 23:17:05 10° E
Cosmos 540 Rocket 3.4 23:05:53 10° NNW 23:11:02 86° WSW 23:14:32 21° SSE
ALOS 2 2.6 23:14:27 22° SSE 23:17:13 87° ENE 23:21:39 10° NNW
Cosmos 1733 Rocket 3.7 23:14:58 10° NNW 23:19:10 46° W 23:21:58 19° SSW
SL-16 R/B 4.0 23:15:37 10° NW 23:19:31 19° W 23:23:25 10° SW
Cosmos 468 Rocket 3.9 23:16:40 10° NNW 23:21:53 86° ENE 23:25:26 20° SSE
Cosmos 841 Rocket 4.2 23:17:54 10° NNW 23:23:03 50° ENE 23:27:33 13° SE
NOSS 3-1 (A) 4.0 23:16:45 10° NW 23:23:41 89° NE 23:32:15 10° SE
Cosmos 1464 Rocket 4.0 23:20:13 10° NNW 23:26:33 81° W 23:31:00 20° S
Cosmos 2227 Rocket 4.2 23:23:26 10° W 23:28:16 28° NW 23:33:09 10° NNE
ATLAS 2AS CENTAUR R/B 3.7 23:25:05 18° SSE 23:28:53 29° ESE 23:34:44 10° ENE
CZ-2C R/B 4.1 23:25:57 10° N 23:30:24 60° WNW 23:34:03 15° SSW
Cosmos 2263 Rocket 3.4 23:26:57 10° WSW 23:32:19 41° NW 23:37:44 10° NNE
Cosmos 2034 Rocket 4.0 23:27:13 10° N 23:33:28 81° E 23:37:59 20° SSE
Cosmos 1833 Rocket 4.0 23:31:47 10° NNW 23:37:01 37° NE 23:42:13 10° ESE
ASTEX 1 4.2 23:33:02 10° N 23:37:46 45° WNW 23:41:43 14° SW
Cosmos 1908 Rocket 3.5 23:35:06 10° NNW 23:39:29 84° W 23:42:02 25° S
SeaSat 1 2.4 23:37:33 18° SE 23:41:13 87° NE 23:46:09 10° NNW
Cosmos 1943 4.2 23:36:23 10° NW 23:41:28 34° WSW 23:44:50 19° SSW
Aureole 3 Rocket 3.5 23:38:50 10° NNW 23:41:44 35° W 23:43:24 22° SW
USA 305 2.7 23:44:16 10° W 23:47:36 52° N 23:50:05 10° ENE
Cosmos 1763 Rocket 4.3 23:44:42 10° NW 23:49:25 37° WSW 23:52:18 20° SSW
Cosmos 1271 Rocket 2.5 23:50:19 27° SSW 23:52:10 83° WNW 23:55:49 10° NNE
NOSS 2-1 (D) 3.1 23:50:50 10° NW 23:54:14 75° SW 23:57:18 19° SE
